{"data":{"norad_id":55777,"intl_designator":"2023-028AN","name":"STARLINK-5814","alt_names":[],"object_type":"PAYLOAD","status":"ACTIVE","operator":null,"country":"US","launch_date":"2023-03-03","launch_site_code":"AFWTR","launch_vehicle":null,"mission":null,"orbit_class":"UNKNOWN","rcs_meters":null,"size_class":null,"mass_kg":null,"dimensions":null,"purposes":["comms"],"wikipedia_slug":null,"has_3d_model":false,"image_url":null,"decayed_at":null,"tle_current":{"epoch":"2026-09-20T22:42:49.627872Z","epoch_age_seconds":64583,"freshness":"FRESH","line1":"1 55777U 23028AN  26263.94640773  .00000892  00000+0  82558-4 0  9995","line2":"2 55777  69.9959  92.0287 0002713 268.0075  92.0773 14.98338255195785","mean_motion":14.98338255,"eccentricity":0.0002713,"inclination_deg":69.9959,"raan_deg":92.0287,"arg_perigee_deg":268.0075,"mean_anomaly_deg":92.0773,"bstar":8.2558e-5,"rev_number":19578,"period_min":96.10646963025,"perigee_km":570.14478274945,"apogee_km":573.9159435607,"semimajor_km":6950.1673631551,"source":"CELESTRAK","updated_at":"2026-09-21T09:00:33.318391Z"}}}